Mammoth, CA

1:28 AM PDT on June 18, 2018 (GMT -0700)
Mammoth Yosemite

Weather History for KMMH - October, 2017

Change the Weather History Date:

Sunday, October 8, 2017

  Actual Average Record
Temperature  
Mean Temperature 54 °F -  
Max Temperature 74 °F 61 °F 77 °F (2003)
Min Temperature 34 °F 42 °F 19 °F (1997)
Degree Days  
Heating Degree Days 11    
Growing Degree Days 4 (Base 50)    
Moisture  
Dew Point 12 °F    
Average Humidity 25    
Maximum Humidity 49    
Minimum Humidity 6    
Precipitation  
Precipitation 0.00 in - - ()
Sea Level Pressure  
Sea Level Pressure 30.04 in    
Wind  
Wind Speed 9 mph (West)    
Max Wind Speed 31 mph    
Max Gust Speed 34 mph    
Visibility 10 miles    
Events      
Averages and records for this station are not official NWS values.
T = Trace of Precipitation, MM = Missing Value Source: NWS Daily Summary

Daily Weather History Graph

Daily Weather History Graph

Search for Another Location

Airport or City:

Astronomy

Oct. 08, 2017 Rise Set
Actual Time 6:57 AM PDT 6:27 PM PDT
Civil Twilight 6:31 AM PDT 6:53 PM PDT
Nautical Twilight 6:00 AM PDT 7:23 PM PDT
Astronomical Twilight 5:30 AM PDT 7:54 PM PDT
Moon 8:55 PM PDT (10/8) 10:02 AM PDT (10/8)
Length of Visible Light 12h 22m
Length of Day
11h 30m
Waning Gibbous, 88% of the Moon is Illuminated
Oct 8
Waning Gibbous
Oct 12
Last Quarter
Oct 19
New
Oct 27
First Quarter
Nov 3
Full

Hourly Weather History & Observations

Time (PDT) Temp. Windchill Dew Point Humidity Pressure Visibility Wind Dir Wind Speed Gust Speed Precip Events Conditions
12:15 AM 51.3 °F - 14.2 °F 23% 30.07 in 10.0 mi SE 6.9 mph - N/A   Clear
12:35 AM 52.2 °F - 13.8 °F 22% 30.05 in 10.0 mi Calm Calm - N/A   Clear
12:55 AM 54.0 °F - 3.7 °F 13% 30.06 in 10.0 mi WSW 12.7 mph - N/A   Clear
1:15 AM 54.1 °F - 3.0 °F 13% 30.06 in 10.0 mi West 13.8 mph - N/A   Clear
1:35 AM 50.0 °F - 3.9 °F 15% 30.05 in 10.0 mi West 12.7 mph 16.1 mph N/A   Clear
1:55 AM 52.9 °F - 5.4 °F 15% 30.06 in 10.0 mi West 10.4 mph - N/A   Clear
2:15 AM 52.5 °F - 5.0 °F 15% 30.05 in 10.0 mi West 12.7 mph - N/A   Clear
2:35 AM 50.5 °F - 5.2 °F 16% 30.03 in 10.0 mi West 9.2 mph - N/A   Clear
2:50 AM 49.8 °F - 4.8 °F 16% 30.03 in 10.0 mi ESE 3.5 mph - N/A   Clear
3:15 AM 43.3 °F 39.9 °F 22.1 °F 43% 30.02 in 10.0 mi SE 5.8 mph - N/A   Clear
3:35 AM 48.6 °F - 14.0 °F 25% 30.01 in 10.0 mi SE 9.2 mph - N/A   Clear
3:55 AM 47.8 °F - 11.3 °F 23% 30.01 in 10.0 mi ESE 3.5 mph - N/A   Clear
4:15 AM 48.9 °F - 9.3 °F 20% 30.01 in 10.0 mi SE 3.5 mph - N/A   Clear
4:35 AM 43.7 °F 42.1 °F 11.3 °F 27% 30.01 in 10.0 mi SSE 3.5 mph - N/A   Clear
4:55 AM 40.5 °F - 10.4 °F 29% 30.00 in 10.0 mi Calm Calm - N/A   Clear
5:15 AM 37.4 °F - 10.2 °F 33% 30.01 in 10.0 mi Calm Calm - N/A   Clear
5:35 AM 35.8 °F - 10.0 °F 34% 30.00 in 10.0 mi Calm Calm - N/A   Clear
5:55 AM 36.9 °F - 9.9 °F 33% 30.01 in 10.0 mi Calm Calm - N/A   Clear
6:15 AM 34.7 °F - 9.9 °F 36% 30.01 in 10.0 mi Calm Calm - N/A   Clear
6:35 AM 36.1 °F - 10.6 °F 35% 30.01 in 10.0 mi Calm Calm - N/A   Clear
6:55 AM 34.5 °F - 10.2 °F 37% 30.00 in 10.0 mi Calm Calm - N/A   Clear
7:15 AM 37.2 °F 34.7 °F 9.3 °F 32% 30.01 in 10.0 mi South 3.5 mph - N/A   Clear
7:35 AM 42.8 °F 39.3 °F 15.3 °F 33% 30.01 in 10.0 mi SE 5.8 mph - N/A   Clear
7:55 AM 46.6 °F - 14.2 °F 27% 30.00 in 10.0 mi ESE 3.5 mph - N/A   Clear
8:15 AM 50.4 °F - 13.5 °F 23% 30.01 in 10.0 mi SE 5.8 mph - N/A   Clear
8:35 AM 51.6 °F - 13.6 °F 22% 30.01 in 10.0 mi SE 5.8 mph - N/A   Clear
8:55 AM 56.7 °F - 11.8 °F 17% 30.01 in 10.0 mi ESE 8.1 mph - N/A   Clear
9:15 AM 58.3 °F - 11.8 °F 16% 30.01 in 10.0 mi SE 4.6 mph - N/A   Clear
9:35 AM 59.4 °F - 14.5 °F 17% 30.01 in 10.0 mi SSE 3.5 mph - N/A   Clear
9:55 AM 63.1 °F - 15.4 °F 16% 30.01 in 10.0 mi ESE 5.8 mph - N/A   Clear
10:15 AM 67.5 °F - 8.4 °F 10% 30.00 in 10.0 mi NW 9.2 mph - N/A   Clear
10:35 AM 68.9 °F - 6.8 °F 9% 30.01 in 10.0 mi WNW 13.8 mph - N/A   Clear
10:55 AM 69.6 °F - 6.8 °F 9% 30.00 in 10.0 mi NW 10.4 mph 17.3 mph N/A   Clear
11:15 AM 70.0 °F - 6.8 °F 9% 30.00 in 10.0 mi WNW 10.4 mph 17.3 mph N/A   Clear
11:35 AM 70.3 °F - 6.4 °F 8% 30.00 in 10.0 mi WNW 10.4 mph 17.3 mph N/A   Clear
11:55 AM 71.8 °F - 5.0 °F 7% 29.99 in 10.0 mi NW 3.5 mph 18.4 mph N/A   Clear
12:15 PM 72.3 °F - 4.3 °F 7% 29.99 in 10.0 mi NW 8.1 mph - N/A   Clear
12:35 PM 74.1 °F - 5.2 °F 7% 29.99 in 10.0 mi West 11.5 mph 17.3 mph N/A   Clear
12:55 PM 74.3 °F - 4.8 °F 7% 29.99 in 10.0 mi WNW 13.8 mph 20.7 mph N/A   Clear
1:15 PM 73.2 °F - 6.6 °F 8% 29.98 in 10.0 mi NW 9.2 mph 20.7 mph N/A   Clear
1:35 PM 73.6 °F - 4.6 °F 7% 29.96 in 10.0 mi WNW 15.0 mph 23.0 mph N/A   Clear
1:55 PM 73.6 °F - 2.8 °F 6% 29.96 in 10.0 mi West 16.1 mph 26.5 mph N/A   Clear
2:15 PM 73.6 °F - 3.2 °F 6% 29.95 in 10.0 mi West 18.4 mph 24.2 mph N/A   Clear
2:35 PM 72.7 °F - 4.8 °F 7% 29.94 in 10.0 mi WSW 20.7 mph 25.3 mph N/A   Clear
2:55 PM 73.8 °F - 4.6 °F 7% 29.94 in 10.0 mi WSW 15.0 mph 25.3 mph N/A   Clear
3:15 PM 72.7 °F - 6.3 °F 8% 29.94 in 10.0 mi WSW 10.4 mph 21.9 mph N/A   Clear
3:35 PM 72.7 °F - 6.1 °F 8% 29.94 in 10.0 mi West 13.8 mph 20.7 mph N/A   Clear
3:55 PM 72.5 °F - 8.2 °F 8% 29.94 in 10.0 mi West 16.1 mph 21.9 mph N/A   Clear
4:15 PM 72.1 °F - 10.2 °F 9% 29.94 in 10.0 mi West 18.4 mph 26.5 mph N/A   Clear
4:35 PM 65.1 °F - 19.4 °F 17% 29.95 in 10.0 mi NNW 31.1 mph 34.5 mph N/A   Scattered Clouds
4:55 PM 59.5 °F - 21.7 °F 23% 29.99 in 7.0 mi NNW 20.7 mph 32.2 mph N/A   Clear
5:15 PM 56.1 °F - 22.1 °F 27% 30.03 in 10.0 mi WNW 20.7 mph 24.2 mph N/A   Clear
5:35 PM 53.6 °F - 22.5 °F 30% 30.05 in 10.0 mi WNW 16.1 mph 23.0 mph N/A   Clear
5:55 PM 51.1 °F - 22.5 °F 33% 30.05 in 10.0 mi WNW 18.4 mph 27.6 mph N/A   Clear
6:15 PM 48.6 °F - 22.1 °F 35% 30.06 in 10.0 mi NW 19.6 mph 28.8 mph N/A   Clear
6:35 PM 46.9 °F - 21.4 °F 36% 30.08 in 10.0 mi WNW 19.6 mph 27.6 mph N/A   Clear
6:55 PM 45.7 °F 37.6 °F 21.2 °F 38% 30.09 in 10.0 mi West 21.9 mph 28.8 mph N/A   Clear
7:15 PM 44.4 °F 36.4 °F 20.3 °F 38% 30.11 in 10.0 mi WNW 19.6 mph - N/A   Clear
7:35 PM 43.2 °F 34.2 °F 19.9 °F 40% 30.13 in 10.0 mi West 21.9 mph 27.6 mph N/A   Clear
7:55 PM 42.1 °F 33.3 °F 19.2 °F 40% 30.15 in 10.0 mi West 19.6 mph 28.8 mph N/A   Clear
8:15 PM 41.0 °F 31.4 °F 18.9 °F 41% 30.16 in 10.0 mi West 21.9 mph 25.3 mph N/A   Clear
8:35 PM 40.3 °F 31.6 °F 18.1 °F 41% 30.17 in 10.0 mi WNW 17.3 mph 24.2 mph N/A   Clear
8:55 PM 39.4 °F 30.7 °F 17.6 °F 41% 30.17 in 10.0 mi West 16.1 mph 20.7 mph N/A   Clear
9:15 PM 38.8 °F 29.7 °F 17.4 °F 42% 30.19 in 10.0 mi WNW 17.3 mph 23.0 mph N/A   Clear
9:35 PM 38.3 °F 29.7 °F 17.6 °F 43% 30.20 in 10.0 mi West 15.0 mph 21.9 mph N/A   Clear
9:55 PM 37.6 °F 28.4 °F 17.6 °F 44% 30.21 in 10.0 mi West 16.1 mph - N/A   Clear
10:15 PM 37.4 °F 28.2 °F 17.6 °F 45% 30.20 in 10.0 mi WNW 16.1 mph - N/A   Clear
10:35 PM 36.5 °F 26.7 °F 18.0 °F 47% 30.22 in 10.0 mi West 17.3 mph - N/A   Clear
10:55 PM 36.3 °F 27.1 °F 17.8 °F 47% 30.22 in 10.0 mi WNW 15.0 mph - N/A   Clear
11:15 PM 36.1 °F 27.3 °F 17.6 °F 47% 30.23 in 10.0 mi West 13.8 mph 23.0 mph N/A   Clear
11:35 PM 35.6 °F 26.2 °F 16.9 °F 47% 30.23 in 10.0 mi West 15.0 mph - N/A   Clear
11:55 PM 34.3 °F 24.2 °F 16.7 °F 49% 30.23 in 10.0 mi WNW 16.1 mph - N/A   Clear